Location: Chateh
(58.6667°N, 118.6000°W)
Time: 19:04:37
(UTC+00:00)

Gurwin Techsat 1B - Pass Details

Date: 02 December 2023
Orbit: 810 x 813 km, 98.9° (Epoch: 21 February)

Event Time Altitude Azimuth Distance (km) Brightness Sun altitude
Rises 14:25:25 0° 18° (NNE) 3,352 11.8 -13.4°
Reaches altitude 10° 14:28:53 10° 355° (N) 2,417 10.8 -13.0°
Maximum altitude 14:31:31 14° 325° (NW) 2,145 10.3 -12.7°
Enters shadow 14:31:58 14° 319° (NW) 2,153 10.3 -12.6°
